Location: Alpine
(43.1636°N, 111.0180°W)
Time: 05:06:10
(UTC+00:00)

Tiros 1 despin weight - Pass Details

Date: 02 June 2022
Orbit: 591 x 639 km, 48.2° (Epoch: 30 June)

Event Time Altitude Azimuth Distance (km) Brightness Sun altitude
Rises 03:10:53 0° 292° (WNW) 2,870 ? -2.9°
Reaches altitude 10° 03:13:14 10° 296° (WNW) 1,956 ? -3.3°
Maximum altitude 03:17:41 61° 17° (NNE) 685 ? -3.9°
Drops below altitude 10° 03:22:03 10° 98° (E) 1,926 ? -4.6°
Enters shadow 03:23:32 - 101° (ESE) 2,503 ? -4.8°
Sets 03:24:21 0° 102° (ESE) 2,822 - -4.9°
